カタログに戻る

PUJIANG 2

PJ-2

運用中科学SSO
NORAD 52151·PAYLOAD·🇨🇳 China

打ち上げ Mar 29, 2022 から Taiyuan Satellite Launch Center

Loading…

次のパス (今後24時間)

TLE

最新Source: Space-Track

元期: Sep 14, 2026, 15:09 UTC

1 52151U 22031B   26257.63158373 -.00000320  00000-0 -24212-4 0  9992
2 52151  97.8623  83.2852 0010244 267.0721  92.9327 14.94396370243158

AllMySatでPUJIANG 2をリアルタイム追跡

Download on the App Store